Humidity-temperature Sensor

Selected Measurement Type: Relative Humidity

 
Relative Humidity [%]     6 entries per hour
Showing data from 12/10/2018 (00:00:00 Z) to 12/9/2018 (00:01:00 Z)
Previous Next [ Day | 3-Days | 7-Days ]
First Last
Prev [ Day | 3-Days | 7-Days ] Next
First Last

Start Time:     :
End Time:     :     
Time (in GMT) :00 :50 :40 :30 :20 :10
Previous Next [ Day | 3-Days | 7-Days ]
First Last
Prev [ Day | 3-Days | 7-Days ] Next
First Last


123 => good data
MM => data is determined as missing
-- => data not received/configured
Back to Top Back to Top
12/10/2018 00:00 to 23:10 77.66 78.01 77.53 74.81 74.91 73.43
12/9/2018 23:00 to 22:10 75.06 76.46 76.40 76.36 76.52 77.06
12/9/2018 22:00 to 21:10 75.64 74.97 69.75 69.75 69.38 69.80
12/9/2018 21:00 to 20:10 71.28 70.46 71.24 72.05 71.82 72.83
12/9/2018 20:00 to 19:10 73.24 73.63 72.93 70.81 71.72 71.98
12/9/2018 19:00 to 18:10 73.61 73.88 73.32 74.67 76.75 76.54
12/9/2018 18:00 to 17:10 76.40 75.61 74.34 74.09 72.77 70.97
12/9/2018 17:00 to 16:10 70.62 70.29 70.50 71.12 70.46 68.43
12/9/2018 16:00 to 15:10 67.82 67.38 66.47 67.44 64.33 67.01
12/9/2018 15:00 to 14:10 69.34 73.10 73.72 75.04 73.99 73.76
12/9/2018 14:00 to 13:10 74.38 75.82 75.57 75.88 74.54 77.04
12/9/2018 13:00 to 12:10 80.17 80.11 80.01 80.81 80.83 81.31
12/9/2018 12:00 to 11:10 80.44 80.11 77.53 76.48 75.97 76.60
12/9/2018 11:00 to 10:10 74.87 75.37 76.28 75.04 75.55 75.49
12/9/2018 10:00 to 9:10 74.85 75.64 77.55 77.29 75.94 75.39
12/9/2018 09:00 to 8:10 74.85 75.43 75.53 75.39 77.45 77.93
12/9/2018 08:00 to 7:10 78.40 77.14 76.71 75.95 74.23 72.29
12/9/2018 07:00 to 6:10 74.15 74.40 77.39 77.58 76.28 76.28
12/9/2018 06:00 to 5:10 74.21 73.06 71.88 74.40 74.17 74.67
12/9/2018 05:00 to 4:10 72.81 72.83 74.40 73.61 74.27 74.87
12/9/2018 04:00 to 3:10 74.46 74.83 74.71 72.79 73.01 73.22
12/9/2018 03:00 to 2:10 72.77 74.79 74.69 74.83 75.16 75.72
12/9/2018 02:00 to 1:10 75.49 76.67 77.04 77.04 77.74 77.74
12/9/2018 01:00 to 0:10 77.57 77.76 78.40 78.13 77.25 77.18